Hourly Data Report for October 17, 2014

All times are specified in Local Standard Time (LST). Add 1 hour to adjust for Daylight Saving Time where and when it is observed.

RANKIN INLET A
NUNAVUT

62°48'38.000" N
92°06'53.000" W
32.30 m
2303405
71083
YRT

Download Data

Hourly Data (October 2014)
Hourly Data Report for October 17, 2014
Temp Definition
°C
Dew Point Temp Definition
°C
Rel Hum Definition
%
Wind Dir Definition
10's deg

Wind Spd Definition
km/h
Visibility Definition
km
Stn Press Definition
kPa
Hmdx Definition


Wind Chill Definition


Weather Definition


TIME
00:00 Legend Double Dagger -3.6 -6.9 78 36 19 24.1 102.26   -10 Cloudy
01:00 Legend Double Dagger -3.9 -6.1 85 34 21 24.1 102.30   -10 LegendNANA
02:00 Legend Double Dagger -4.0 -6.0 86 33 16 24.1 102.31   -10 LegendNANA
03:00 Legend Double Dagger -4.3 -5.6 91 34 12 24.1 102.34   -9 Cloudy
04:00 Legend Double Dagger -6.0 -7.4 90 33 16 24.1 102.40   -12 LegendNANA
05:00 Legend Double Dagger -6.8 -8.2 90 34 18 24.1 102.42   -13 LegendNANA
06:00 Legend Double Dagger -6.4 -7.9 89 34 17 24.1 102.45   -13 Mostly Cloudy
07:00 Legend Double Dagger -5.5 -7.3 87 34 22 24.1 102.44   -13 LegendNANA
08:00 Legend Double Dagger -5.6 -7.3 88 35 23 24.1 102.47   -13 LegendNANA
09:00 Legend Double Dagger -5.9 -7.7 87 34 22 24.1 102.50   -13 Mostly Cloudy
10:00 Legend Double Dagger -5.6 -7.7 85 35 20 24.1 102.51   -12 LegendNANA
11:00 Legend Double Dagger -5.3 -7.8 83 35 22 24.1 102.48   -12 LegendNANA
12:00 Legend Double Dagger -4.6 -7.7 79 35 26 24.1 102.45   -12 Mostly Cloudy
13:00 Legend Double Dagger -5.3 -7.8 83 36 18 24.1 102.45   -12 LegendNANA
14:00 Legend Double Dagger -5.3 -6.7 90 33 17 24.1 102.45   -11 Snow Showers
15:00 Legend Double Dagger -5.6 -7.6 86 34 16 24.1 102.46   -12 Mostly Cloudy
16:00 Legend Double Dagger -6.0 -8.0 86 34 18 24.1 102.44   -12 LegendNANA
17:00 Legend Double Dagger -6.2 -7.7 89 36 15 24.1 102.44   -12 LegendNANA
18:00 Legend Double Dagger -6.7 -8.5 87 34 13 24.1 102.45   -12 Snow
19:00 Legend Double Dagger -7.0 -8.4 90 35 12 24.1 102.40   -12 Snow
20:00 Legend Double Dagger -7.5 -8.7 91 35 13 24.1 102.34   -13 Snow
21:00 Legend Double Dagger -7.5 -8.6 92 36 9 24.1 102.31   -12 Snow
22:00 Legend Double Dagger -7.7 -8.9 91 33 11 24.1 102.29   -13 Snow
23:00 Legend Double Dagger -8.1 -9.3 91 33 4 24.1 102.21   -10 Snow

Notes on Data Quality.

Legend

  • E = Estimated
  • M = Missing
  • NA = Not Available
  • ‡ = Partner data that is not subject to review by the National Climate Archives
Date modified: